Weather History for Glendive, MT

Change the Weather History Date:

Tuesday, December 13, 2011

  Actual Average Record
Temperature  
Mean Temperature 20 °F -  
Max Temperature 21 °F 32 °F 51 °F (1997)
Min Temperature 19 °F 12 °F -11 °F (2000)
Degree Days  
Heating Degree Days 45    
Moisture  
Dew Point 17 °F    
Average Humidity 88    
Maximum Humidity 93    
Minimum Humidity 80    
Precipitation  
Precipitation 0.00 in - - ()
Sea Level Pressure  
Sea Level Pressure 29.99 in    
Wind  
Wind Speed 8 mph (South)    
Max Wind Speed 12 mph    
Max Gust Speed -    
Visibility 10 miles    
Events      
Averages and records for this station are not official NWS values.
T = Trace of Precipitation, MM = Missing Value Source: NWS Daily Summary

Daily Weather History Graph

Daily Weather History Graph

Search for Another Location

Airport:

Trip Planner

Search our weather history database for the weather conditions in past years. The results will help you decide how hot, cold, wet, or windy it might be!

Date:

Astronomy

Dec. 13, 2011 Rise Set
Actual Time 7:37 AM MST 4:09 PM MST
Civil Twilight 7:01 AM MST 4:45 PM MST
Nautical Twilight 6:22 AM MST 5:23 PM MST
Astronomical Twilight 5:45 AM MST 6:01 PM MST
Moon 7:35 PM MST (12/13) 9:42 AM MST (12/13)
Length of Visible Light 9h 43m
Length of Day
8h 32m
Waning Gibbous, 90% of the Moon is Illuminated
Dec 13
Waning Gibbous
Dec 17
Last Quarter
Dec 24
New
Dec 31
First Quarter
Jan 9
Full

Hourly Weather History & Observations

Time (MST) Temp. Windchill Dew Point Humidity Pressure Visibility Wind Dir Wind Speed Gust Speed Precip Events Conditions
12:15 AM 21.2 °F 11.7 °F 17.6 °F 86% 30.13 in 8.0 mi SSE 8.1 mph - N/A   Overcast
12:35 AM 21.2 °F 10.1 °F 17.6 °F 86% 30.12 in 7.0 mi SSE 10.4 mph - N/A   Overcast
12:55 AM 21.2 °F 10.1 °F 17.6 °F 86% 30.11 in 7.0 mi SSE 10.4 mph - N/A   Overcast
1:15 AM 19.4 °F 9.5 °F 17.6 °F 93% 30.11 in 7.0 mi SE 8.1 mph - N/A   Overcast
1:35 AM 19.4 °F 9.5 °F 17.6 °F 93% 30.09 in 7.0 mi SE 8.1 mph - N/A   Overcast
1:55 AM 19.4 °F 8.6 °F 17.6 °F 93% 30.09 in 7.0 mi SE 9.2 mph - N/A   Overcast
2:15 AM 19.4 °F 8.6 °F 17.6 °F 93% 30.09 in 8.0 mi SE 9.2 mph - N/A   Overcast
2:35 AM 19.4 °F 9.5 °F 17.6 °F 93% 30.09 in 8.0 mi SE 8.1 mph - N/A   Overcast
3:15 AM 19.4 °F 10.4 °F 15.8 °F 86% 30.07 in 10.0 mi SE 6.9 mph - N/A   Overcast
3:35 AM 19.4 °F 11.5 °F 15.8 °F 86% 30.07 in 10.0 mi SE 5.8 mph - N/A   Overcast
3:55 AM 19.4 °F 10.4 °F 17.6 °F 93% 30.07 in 10.0 mi SSE 6.9 mph - N/A   Overcast
4:15 AM 19.4 °F 11.5 °F 15.8 °F 86% 30.06 in 8.0 mi SSE 5.8 mph - N/A   Overcast
4:35 AM 19.4 °F 11.5 °F 15.8 °F 86% 30.06 in 10.0 mi SE 5.8 mph - N/A   Overcast
4:55 AM 19.4 °F 11.5 °F 17.6 °F 93% 30.06 in 10.0 mi SSE 5.8 mph - N/A   Overcast
5:15 AM 19.4 °F 10.4 °F 17.6 °F 93% 30.05 in 10.0 mi SSE 6.9 mph - N/A   Overcast
5:35 AM 19.4 °F 7.2 °F 17.6 °F 93% 30.05 in 9.0 mi SSE 11.5 mph - N/A   Overcast
6:15 AM 19.4 °F 7.2 °F 15.8 °F 86% 30.04 in 10.0 mi SSE 11.5 mph - N/A   Overcast
6:35 AM 19.4 °F 7.2 °F 15.8 °F 86% 30.04 in 10.0 mi SSE 11.5 mph - N/A   Overcast
6:55 AM 19.4 °F 7.9 °F 15.8 °F 86% 30.03 in 10.0 mi SSE 10.4 mph - N/A   Overcast
7:15 AM 19.4 °F 11.5 °F 15.8 °F 86% 30.03 in 10.0 mi SSE 5.8 mph - N/A   Overcast
7:35 AM 19.4 °F 8.6 °F 15.8 °F 86% 30.03 in 10.0 mi SSE 9.2 mph - N/A   Overcast
7:55 AM 19.4 °F 8.6 °F 15.8 °F 86% 30.02 in 10.0 mi SSE 9.2 mph - N/A   Overcast
8:15 AM 19.4 °F 8.6 °F 15.8 °F 86% 30.02 in 10.0 mi SSE 9.2 mph - N/A   Overcast
8:35 AM 19.4 °F 8.6 °F 15.8 °F 86% 30.03 in 10.0 mi SSE 9.2 mph - N/A   Overcast
8:55 AM 19.4 °F 8.6 °F 15.8 °F 86% 30.02 in 10.0 mi South 9.2 mph - N/A   Overcast
9:15 AM 19.4 °F 8.6 °F 15.8 °F 86% 30.02 in 9.0 mi SSE 9.2 mph - N/A   Overcast
9:35 AM 19.4 °F 9.5 °F 15.8 °F 86% 30.02 in 9.0 mi South 8.1 mph - N/A   Overcast
9:55 AM 19.4 °F 7.9 °F 15.8 °F 86% 30.02 in 10.0 mi South 10.4 mph - N/A   Overcast
10:15 AM 19.4 °F 8.6 °F 15.8 °F 86% 30.02 in 10.0 mi SSE 9.2 mph - N/A   Overcast
10:35 AM 19.4 °F 9.5 °F 17.6 °F 93% 30.01 in 10.0 mi South 8.1 mph - N/A   Overcast
10:55 AM 19.4 °F 8.6 °F 15.8 °F 86% 30.00 in 10.0 mi SSE 9.2 mph - N/A   Overcast
11:15 AM 19.4 °F 10.4 °F 17.6 °F 93% 29.99 in 10.0 mi SSW 6.9 mph - N/A   Overcast
11:35 AM 21.2 °F 11.7 °F 17.6 °F 86% 29.98 in 10.0 mi SSW 8.1 mph - N/A   Overcast
12:15 PM 21.2 °F 12.6 °F 15.8 °F 80% 29.96 in 10.0 mi SSE 6.9 mph - N/A   Overcast
12:35 PM 21.2 °F 13.6 °F 17.6 °F 86% 29.95 in 10.0 mi SSE 5.8 mph - N/A   Overcast
12:55 PM 21.2 °F 9.5 °F 17.6 °F 86% 29.95 in 10.0 mi South 11.5 mph - N/A   Overcast
1:15 PM 21.2 °F 12.6 °F 17.6 °F 86% 29.95 in 10.0 mi South 6.9 mph - N/A   Overcast
1:35 PM 21.2 °F 12.6 °F 17.6 °F 86% 29.94 in 10.0 mi South 6.9 mph - N/A   Overcast
1:55 PM 21.2 °F 13.6 °F 17.6 °F 86% 29.93 in 10.0 mi South 5.8 mph - N/A   Overcast
2:15 PM 21.2 °F 13.6 °F 17.6 °F 86% 29.92 in 10.0 mi SSW 5.8 mph - N/A   Overcast
2:35 PM 21.2 °F 12.6 °F 17.6 °F 86% 29.91 in 10.0 mi SSW 6.9 mph - N/A   Overcast
2:55 PM 21.2 °F 12.6 °F 17.6 °F 86% 29.92 in 10.0 mi South 6.9 mph - N/A   Overcast
3:36 PM 21.2 °F 12.6 °F 19.4 °F 93% 29.91 in 10.0 mi South 6.9 mph - N/A   Overcast
3:55 PM 21.2 °F 12.6 °F 17.6 °F 86% 29.90 in 10.0 mi SSW 6.9 mph - N/A   Overcast
4:15 PM 21.2 °F 11.7 °F 17.6 °F 86% 29.90 in 10.0 mi SSW 8.1 mph - N/A   Overcast
4:35 PM 21.2 °F 13.6 °F 17.6 °F 86% 29.89 in 10.0 mi SSW 5.8 mph - N/A   Overcast
5:15 PM 21.2 °F 10.9 °F 17.6 °F 86% 29.88 in 10.0 mi South 9.2 mph - N/A   Overcast
5:35 PM 21.2 °F 10.9 °F 17.6 °F 86% 29.88 in 10.0 mi South 9.2 mph - N/A   Overcast
5:55 PM 21.2 °F 13.6 °F 17.6 °F 86% 29.88 in 10.0 mi SSW 5.8 mph - N/A   Overcast
6:15 PM 21.2 °F 12.6 °F 19.4 °F 93% 29.88 in 10.0 mi SSW 6.9 mph - N/A   Overcast
6:35 PM 21.2 °F 13.6 °F 17.6 °F 86% 29.88 in 10.0 mi SSW 5.8 mph - N/A   Overcast
6:55 PM 21.2 °F 13.6 °F 19.4 °F 93% 29.88 in 10.0 mi SW 5.8 mph - N/A   Overcast
7:15 PM 21.2 °F 11.7 °F 19.4 °F 93% 29.87 in 10.0 mi SSW 8.1 mph - N/A   Overcast
7:55 PM 21.2 °F 11.7 °F 19.4 °F 93% 29.87 in 10.0 mi South 8.1 mph - N/A   Overcast
8:15 PM 21.2 °F 13.6 °F 19.4 °F 93% 29.86 in 10.0 mi SSW 5.8 mph - N/A   Overcast
8:35 PM 21.2 °F 11.7 °F 19.4 °F 93% 29.85 in 10.0 mi SSW 8.1 mph - N/A   Overcast
8:55 PM 21.2 °F 11.7 °F 19.4 °F 93% 29.84 in 10.0 mi SSW 8.1 mph - N/A   Overcast
9:15 PM 21.2 °F 11.7 °F 19.4 °F 93% 29.84 in 10.0 mi SSW 8.1 mph - N/A   Overcast
9:35 PM 21.2 °F 14.9 °F 17.6 °F 86% 29.83 in 10.0 mi SW 4.6 mph - N/A   Overcast
9:55 PM 21.2 °F 16.4 °F 19.4 °F 93% 29.82 in 9.0 mi SW 3.5 mph - N/A   Overcast
10:15 PM 21.2 °F 14.9 °F 17.6 °F 86% 29.82 in 10.0 mi SW 4.6 mph - N/A   Overcast
10:35 PM 21.2 °F 12.6 °F 19.4 °F 93% 29.82 in 9.0 mi SSW 6.9 mph - N/A   Overcast
10:55 PM 23.0 °F 15.8 °F 19.4 °F 86% 29.81 in 9.0 mi South 5.8 mph - N/A   Overcast
11:15 PM 21.2 °F 11.7 °F 19.4 °F 93% 29.80 in 8.0 mi South 8.1 mph - N/A   Overcast
11:35 PM 21.2 °F 11.7 °F 19.4 °F 93% 29.80 in 8.0 mi SSW 8.1 mph - N/A   Overcast